Theta_e
313 313 313 311 308 308 309 309 307 307 310 311 311 312 311 307 307 307 311 310 313 312 307 307 316 314 312 314 317 318 321 324 325 327 328 329 331 331 330 328 329 328 327 327 327
311 311 312 313 313 311 309 310 309 309 307 306 305 305 305 306 306 307 311 312 312 310 306 311 317 314 313 315 317 320 321 320 322 324 326 327 328 328 327 326 328 329 329 326 327
312 313 311 310 312 313 313 310 311 311 312 310 308 305 304 305 315 319 315 313 312 312 307 313 316 316 315 316 317 319 321 321 321 321 322 324 324 324 324 325 326 329 329 328 328
312 312 313 312 309 311 312 313 312 311 313 314 314 310 306 305 322 321 314 313 308 310 309 315 316 317 317 317 318 319 320 321 322 322 322 323 323 323 322 323 323 323 323 324 323
311 311 311 309 308 309 310 310 314 312 312 313 313 313 310 318 318 318 313 313 308 307 311 316 316 318 317 318 318 319 320 320 320 321 322 321 322 321 320 320 320 320 320 320 321
305 306 306 305 307 308 309 310 311 314 311 313 313 313 314 319 314 315 316 313 317 315 314 316 318 318 318 319 320 320 320 320 320 320 320 320 320 320 319 319 319 319 319 319 319
302 302 303 304 305 307 308 311 310 314 312 310 313 313 316 317 315 314 317 317 318 316 317 317 317 317 318 320 320 320 320 321 320 320 320 320 320 320 319 319 319 320 320 320 320
303 305 306 307 307 308 310 311 310 314 312 310 313 313 318 318 317 317 317 316 317 317 316 315 317 318 318 319 320 320 320 320 321 320 320 320 320 321 321 320 319 320 319 320 320
308 308 309 309 310 310 310 310 311 314 310 311 315 318 320 318 315 313 315 317 317 316 315 317 317 318 318 319 320 319 319 319 320 321 321 320 320 320 321 320 320 319 319 319 319
313 312 310 311 311 311 312 311 314 310 315 314 318 320 320 319 317 313 315 317 317 316 316 317 317 318 320 320 317 319 319 320 320 321 321 319 319 320 319 319 320 320 319 319 319
313 312 311 310 310 311 312 314 321 321 320 321 321 319 319 319 318 317 316 318 317 316 318 318 319 319 319 319 319 319 319 320 320 320 320 319 320 320 321 320 320 320 320 321 319
314 312 311 311 312 312 312 315 318 317 319 321 321 319 319 319 319 318 316 317 318 318 319 320 320 320 320 320 320 320 319 320 320 320 320 320 320 321 321 322 321 322 322 321 321
313 312 310 313 314 316 315 318 317 316 320 321 321 321 319 318 319 320 317 317 319 319 320 320 321 321 319 319 319 319 320 320 319 320 321 321 321 321 321 322 322 322 322 321 321
312 312 312 313 319 319 319 317 316 318 321 323 320 319 320 319 319 319 318 318 317 318 319 320 321 320 320 318 318 319 320 319 320 320 320 321 322 323 323 323 323 323 322 322 322
311 310 313 312 312 319 316 316 317 319 334 324 321 319 319 318 319 319 318 317 319 319 318 319 320 319 319 319 320 319 320 320 320 321 322 322 323 324 324 324 324 324 322 321 320
309 310 314 317 318 314 315 316 318 326 332 324 321 320 319 318 320 318 318 317 317 318 318 319 320 320 319 320 320 320 320 320 321 322 323 323 324 324 324 322 322 322 321 320 320
309 311 315 311 319 316 316 319 327 330 323 324 322 321 320 320 320 319 320 320 319 319 320 319 320 319 319 320 320 321 321 322 324 327 327 325 325 326 322 321 321 321 320 319 319
308 315 313 312 317 318 319 323 330 325 323 322 321 322 322 322 321 321 321 321 321 320 321 322 323 322 322 323 321 322 323 325 328 327 325 323 324 322 321 321 320 320 320 319 319
309 318 320 318 317 319 322 326 327 324 321 321 321 322 320 323 322 322 322 322 321 321 322 324 322 323 322 322 321 321 322 322 323 323 324 322 321 321 320 322 322 321 320 318 318
311 317 322 318 317 321 324 326 324 321 320 321 322 322 322 324 325 323 323 322 321 321 320 322 324 322 322 322 320 320 321 321 321 325 324 322 320 319 319 319 318 318 317 316 316
316 322 319 319 319 321 326 324 323 320 318 320 321 322 321 321 322 322 322 321 320 320 320 321 320 321 321 321 320 320 321 320 321 322 323 321 320 321 319 319 318 317 316 316 317
316 323 319 318 321 324 325 322 318 318 318 319 319 320 320 321 321 321 320 321 320 318 320 319 322 323 321 320 320 320 319 320 324 323 324 326 323 320 320 318 318 317 318 317 318
316 318 319 317 321 323 323 321 319 319 319 319 318 319 320 320 320 321 319 320 319 319 319 321 322 324 322 320 319 319 318 317 317 320 319 322 319 318 319 318 318 318 317 318 317
315 319 319 317 317 319 320 319 319 319 318 318 318 318 319 320 319 319 319 319 319 316 314 315 318 320 322 321 320 321 319 318 317 321 317 317 317 317 318 320 319 317 316 315 314
316 318 317 319 320 319 318 318 318 319 318 316 318 319 319 319 319 320 320 319 319 317 316 316 318 318 318 318 317 317 317 316 316 315 316 316 316 316 319 319 317 315 313 312 312
315 314 314 314 315 317 315 318 317 317 315 317 317 316 316 318 317 317 317 318 319 318 316 316 318 319 319 317 316 316 316 315 315 314 315 315 317 317 316 315 314 313 312 312 311
313 313 313 314 316 317 317 316 315 315 314 313 314 314 314 315 314 314 314 315 316 318 319 319 320 320 320 318 317 318 318 318 319 319 317 316 316 316 316 315 313 312 311 310 309
Wind_Speed
22 23 23 23 21 19 18 19 17 14 13 12 12 13 13 15 16 17 21 11 7 13 12 8 11 14 17 21 28 31 16 18 27 27 22 26 21 26 23 12 19 9 9 14 7
22 23 24 23 22 21 19 17 17 15 13 11 11 11 12 15 19 21 13 12 16 16 11 9 11 14 22 21 29 21 17 26 24 24 23 24 21 27 6 9 23 24 20 17 14
20 21 23 24 24 23 21 19 16 15 14 12 11 10 11 14 14 4 1 3 9 11 10 13 20 14 20 21 29 29 20 22 27 32 19 10 4 3 6 14 22 26 26 20 25
22 23 25 25 24 24 23 21 19 15 14 14 12 12 10 10 4 3 5 5 8 9 11 10 18 18 17 19 27 23 28 26 28 25 5 7 12 13 13 19 25 23 20 19 19
23 25 27 26 25 24 24 23 21 18 15 14 14 13 10 8 17 7 4 3 3 10 12 12 16 15 16 18 24 20 21 27 27 29 5 8 18 18 23 19 19 18 18 24 21
23 25 26 26 25 25 25 24 23 19 15 14 14 13 9 13 4 6 5 3 6 8 9 14 14 14 18 18 18 20 23 20 16 21 15 14 17 21 22 17 21 23 20 19 22
24 24 26 26 26 26 27 26 24 21 15 12 13 12 11 22 5 4 8 8 7 8 11 11 14 17 12 15 18 18 11 15 22 16 18 19 19 19 22 20 23 16 16 16 17
25 25 25 27 26 27 27 26 24 20 14 9 9 8 11 7 11 14 11 11 9 9 10 9 9 14 17 18 6 13 13 15 17 19 18 14 15 16 27 26 23 19 15 17 17
25 26 26 26 26 27 27 24 23 17 10 6 5 4 9 7 10 12 14 13 11 9 9 6 9 14 18 12 10 12 14 19 20 26 13 16 14 18 7 11 10 10 16 16 16
27 27 28 30 30 30 25 21 17 9 3 2 7 9 13 10 7 11 12 12 9 10 11 11 10 12 13 12 12 17 19 15 18 15 11 13 15 15 15 16 17 20 25 23 19
28 28 31 34 35 28 19 10 4 2 11 11 10 8 3 6 4 7 12 12 10 11 12 16 11 13 17 17 19 19 15 15 7 3 3 9 11 13 14 13 15 13 16 18 24
28 31 34 37 24 16 12 8 5 10 13 21 22 17 14 5 7 10 13 10 13 13 12 12 14 15 15 14 11 11 12 14 14 12 10 11 14 15 16 16 18 18 15 15 14
28 31 37 25 13 3 3 7 11 11 8 12 15 21 16 15 13 14 15 16 12 12 14 15 14 14 5 10 11 13 14 14 15 14 10 10 16 17 19 24 25 23 21 10 13
28 30 30 17 5 5 7 4 3 5 5 9 7 6 8 13 12 12 15 14 9 16 14 15 18 14 9 11 12 12 14 15 12 9 10 13 13 16 14 13 12 16 14 14 2
27 29 21 11 6 4 5 5 6 3 3 7 9 7 12 16 14 17 12 15 15 16 10 14 15 11 14 10 10 9 11 8 10 13 14 17 11 15 16 17 7 12 19 18 16
27 24 16 4 10 7 7 7 5 5 3 5 8 8 10 18 5 13 14 15 12 13 17 16 13 12 9 11 7 5 10 14 15 15 14 22 18 15 9 9 11 12 12 10 11
25 18 11 6 2 8 8 8 4 5 6 4 2 10 14 10 11 10 14 13 10 10 11 13 14 15 18 16 13 15 12 11 12 10 14 16 5 9 4 7 4 6 3 4 6
22 9 6 6 5 10 8 8 7 9 10 4 5 9 10 9 10 10 7 10 11 12 13 12 14 11 7 18 13 11 10 7 8 11 15 16 8 9 16 10 11 3 6 6 7
18 5 6 5 6 6 11 6 4 7 7 10 11 12 14 6 4 1 7 10 9 9 5 10 10 12 14 10 5 5 7 4 8 13 11 13 18 15 8 11 10 2 4 11 14
18 5 11 6 6 7 9 15 9 6 6 9 10 10 8 3 4 4 10 2 7 12 4 3 9 9 14 13 11 13 10 9 6 5 12 10 8 5 10 11 7 10 11 14 18
11 6 5 3 6 11 9 4 3 10 4 5 12 14 13 11 6 10 4 3 5 6 5 9 6 8 11 11 11 8 10 11 5 7 4 8 9 11 11 11 8 11 15 21 22
6 4 3 2 10 12 9 4 3 6 5 4 6 11 11 13 12 17 15 6 9 3 4 4 3 10 16 16 14 12 11 8 7 7 10 11 12 14 9 10 16 17 26 20 22
10 14 2 3 6 8 4 2 5 6 3 3 3 10 13 11 9 10 9 3 3 5 0 1 4 8 11 14 16 8 8 10 10 9 13 12 12 14 16 16 20 16 23 23 25
8 4 6 3 2 6 10 10 6 4 3 6 9 9 10 14 10 7 11 4 9 3 8 1 8 11 10 7 6 15 14 14 12 8 13 14 19 16 15 14 17 23 24 25 25
6 4 3 4 6 6 8 11 12 5 5 4 3 8 6 6 9 7 8 6 14 6 6 6 12 13 16 18 16 19 19 18 17 17 16 17 20 17 16 17 20 25 27 29 30
8 7 14 16 10 7 5 2 7 6 3 5 5 9 8 9 9 14 9 9 7 2 8 5 9 11 15 17 19 20 18 17 17 17 20 18 16 14 23 27 28 30 33 33 35
9 8 9 12 8 6 4 4 4 6 7 2 5 7 9 9 8 14 15 15 13 8 3 4 2 4 7 12 14 11 13 10 5 8 10 12 17 18 19 21 27 32 34 36 39
Wind_Direction
12 11 10 10 8 2 357 350 346 341 335 328 316 310 308 302 294 285 276 246 243 281 287 261 252 235 224 233 234 225 233 241 239 234 231 251 230 233 229 278 272 295 265 297 58
4 5 6 4 2 2 356 350 346 342 338 333 324 319 312 304 294 278 282 257 264 267 259 231 236 218 219 226 236 230 226 239 244 251 255 224 239 271 158 244 247 276 273 281 285
350 354 356 355 356 355 351 350 341 336 336 337 332 325 318 311 309 248 299 256 264 251 227 242 268 209 224 222 234 225 238 232 246 249 244 322 270 186 246 240 243 240 256 258 271
333 335 337 340 343 344 347 341 341 327 323 325 330 326 321 307 300 161 335 293 264 220 211 244 261 219 223 227 233 232 231 251 257 261 232 240 266 276 243 239 247 260 273 267 292
322 323 326 330 332 332 334 336 331 327 310 312 315 317 322 266 264 267 286 280 207 195 205 232 246 227 224 231 229 239 235 233 249 263 226 238 249 254 259 264 273 266 256 267 267
322 321 322 326 326 326 326 328 325 315 306 296 309 304 307 266 245 302 203 211 153 188 211 238 249 241 248 246 232 234 236 244 247 261 258 243 238 235 241 255 260 257 258 247 257
324 324 322 321 321 321 321 323 318 313 303 285 299 293 276 246 229 233 213 202 198 213 239 246 259 290 262 266 263 245 258 229 249 224 244 245 248 240 240 224 249 237 237 245 265
325 326 324 320 321 317 316 318 315 306 292 273 285 284 260 264 236 238 219 223 228 229 242 259 258 272 266 272 294 251 251 255 230 227 227 227 252 252 239 209 225 240 262 259 252
330 328 326 324 322 316 313 314 312 300 275 252 282 242 265 258 242 219 214 223 229 232 231 259 246 255 261 250 249 232 246 233 252 216 193 202 242 244 153 155 195 213 238 256 270
331 328 324 322 318 314 310 310 305 288 294 210 225 257 250 234 216 204 205 213 235 226 228 227 236 237 237 247 238 225 218 234 251 156 191 233 225 251 257 233 212 216 217 226 238
328 327 322 318 315 307 304 312 311 199 206 217 203 244 100 159 127 210 198 206 232 229 234 223 235 234 236 222 247 283 305 312 308 22 280 301 296 286 284 269 263 256 258 239 219
330 327 325 324 317 297 279 219 300 322 299 247 243 235 253 255 198 205 193 208 219 232 216 252 229 251 265 272 297 297 289 283 289 295 283 270 274 276 274 271 261 259 257 263 268
330 330 330 335 334 360 295 247 290 302 282 294 213 225 226 221 242 189 191 207 228 231 248 242 246 223 280 293 277 259 264 276 282 286 304 297 279 263 253 244 242 242 237 246 261
328 331 335 346 358 345 265 309 308 298 273 152 168 183 193 200 230 221 197 207 237 255 248 255 255 261 197 248 255 252 246 246 264 281 269 275 295 298 293 276 254 235 234 223 191
328 332 335 349 315 345 305 306 308 266 278 197 115 152 165 187 117 198 196 217 240 254 251 264 247 251 265 255 260 261 311 323 295 280 283 272 262 263 251 234 229 74 52 33 18
328 328 322 328 333 345 325 309 296 234 289 188 135 182 177 225 203 140 200 219 252 251 273 275 277 307 264 250 274 310 293 285 273 259 257 257 249 261 285 27 91 75 46 25 14
328 320 295 256 216 317 311 292 252 263 194 96 120 170 200 192 225 181 192 204 230 245 245 266 270 267 288 270 261 258 238 260 269 237 251 265 360 267 10 99 72 83 69 32 350
331 313 288 274 277 302 311 266 265 305 30 75 302 285 258 257 226 212 219 234 226 245 282 263 274 267 286 271 265 284 286 265 264 300 303 312 281 306 324 90 99 59 9 353 324
335 330 314 303 266 296 287 256 282 335 26 345 320 264 261 151 342 240 307 285 275 257 240 303 264 344 256 265 299 249 269 6 294 276 278 279 280 262 229 85 72 80 235 267 258
334 309 254 248 247 272 264 270 316 67 13 329 293 320 315 183 242 195 223 208 292 252 213 300 306 284 259 286 271 267 288 293 263 292 263 274 332 342 21 358 343 326 319 313 307
321 264 151 218 241 251 248 251 224 62 38 326 331 314 309 311 261 267 280 273 244 223 213 242 238 272 311 257 252 292 233 239 276 242 258 279 276 279 3 322 338 299 294 288 295
288 265 150 175 238 242 264 33 36 310 309 312 300 297 299 314 296 292 284 224 275 284 218 108 289 277 272 258 269 289 267 249 214 249 258 259 268 280 278 321 297 287 314 332 336
295 286 174 181 268 315 221 331 311 253 330 313 281 297 313 288 301 287 304 96 253 246 306 85 246 279 263 246 239 237 279 259 254 261 266 276 284 287 286 290 299 353 328 327 340
291 288 187 221 260 325 346 310 288 118 315 351 322 313 308 293 266 271 284 348 207 159 99 314 263 251 276 292 215 281 281 272 263 259 273 269 284 291 293 314 344 349 353 346 339
254 6 7 310 53 343 301 306 290 321 24 346 296 34 346 289 323 312 14 4 304 208 227 234 263 275 279 282 281 275 271 271 271 271 271 278 281 300 334 346 359 354 341 329 323
307 350 336 289 279 302 272 353 336 334 314 307 299 12 327 286 319 307 331 312 288 258 255 228 261 278 277 274 262 262 267 268 263 268 266 282 299 345 356 347 342 342 334 324 320
343 315 282 296 266 229 25 20 299 282 300 316 344 312 288 320 296 303 299 291 271 271 272 307 276 302 268 273 284 275 275 300 5 327 348 316 334 358 345 337 340 335 327 322 317